EZY2TL EGCC-EHRD

Flight info

Callsign EZY2TL
Flight time N/A
Altitude 33000
Route SONEX UL975 DESIG L603 LAMSO
Aircraft A20N/M-SDE2E3FGHIRWXY/LB1

Departure

Time N/A
Airport Manchester Airport (EGCC)

Arrival

Time 2026-05-04 17:06
Airport Rotterdam The Hague Airport (EHRD)
Time Latitude Longitude Altitude Speed Heading
2026-05-04 16:39 52.89555 1.70874 33038 ft 448 kts 104°
2026-05-04 16:39 52.88329 1.80986 33033 ft 448 kts 105°
2026-05-04 16:40 52.85853 2.01210 33028 ft 448 kts 105°
2026-05-04 16:41 52.84587 2.11405 32600 ft 461 kts 105°
2026-05-04 16:41 52.82637 2.27011 31819 ft 463 kts 105°
2026-05-04 16:42 52.80664 2.42640 31049 ft 464 kts 106°
2026-05-04 16:43 52.79343 2.52995 30549 ft 464 kts 106°
2026-05-04 16:43 52.78003 2.63413 30046 ft 464 kts 106°
2026-05-04 16:43 52.77329 2.68624 29431 ft 464 kts 107°
2026-05-04 16:44 52.74595 2.89449 26359 ft 461 kts 108°
2026-05-04 16:45 52.71776 2.98541 24881 ft 444 kts 137°
2026-05-04 16:46 52.63971 3.05693 22603 ft 426 kts 162°
2026-05-04 16:46 52.58467 3.09224 21038 ft 422 kts 161°
2026-05-04 16:47 52.53040 3.12740 19540 ft 416 kts 161°
2026-05-04 16:47 52.47694 3.16217 18082 ft 410 kts 161°
2026-05-04 16:48 52.39866 3.21305 15743 ft 400 kts 161°
2026-05-04 16:48 52.37293 3.22974 14997 ft 397 kts 161°
2026-05-04 16:49 52.32204 3.26268 13529 ft 390 kts 161°
2026-05-04 16:49 52.27213 3.29491 11964 ft 382 kts 161°
2026-05-04 16:50 52.22339 3.32631 10509 ft 374 kts 160°
2026-05-04 16:50 52.17555 3.35707 9083 ft 364 kts 160°
2026-05-04 16:51 52.12909 3.38687 7657 ft 354 kts 160°
2026-05-04 16:51 52.10626 3.40149 6961 ft 350 kts 160°
2026-05-04 16:51 52.06184 3.42989 5820 ft 335 kts 160°
2026-05-04 16:52 52.02049 3.45630 5279 ft 305 kts 160°
2026-05-04 16:52 52.00127 3.46856 5096 ft 290 kts 161°
2026-05-04 16:53 51.96535 3.49142 4728 ft 267 kts 161°
2026-05-04 16:53 51.91383 3.52407 4183 ft 265 kts 161°
2026-05-04 16:54 51.89671 3.53491 3997 ft 264 kts 161°
2026-05-04 16:55 51.82918 3.57815 3294 ft 261 kts 156°
2026-05-04 16:55 51.80580 3.62141 2986 ft 267 kts 106°
2026-05-04 16:56 51.80754 3.67869 2763 ft 247 kts 81°
2026-05-04 16:56 51.81659 3.75982 1986 ft 246 kts 81°
2026-05-04 16:57 51.81952 3.78699 1981 ft 246 kts 81°
2026-05-04 16:57 51.82525 3.83996 1965 ft 223 kts 81°
2026-05-04 16:58 51.83289 3.91108 1982 ft 208 kts 81°
2026-05-04 16:58 51.83532 3.93369 1980 ft 202 kts 82°
2026-05-04 16:59 51.84006 3.97819 1976 ft 200 kts 82°
2026-05-04 17:00 51.84949 4.06688 1979 ft 200 kts 82°
2026-05-04 17:00 51.85653 4.13350 1983 ft 199 kts 82°
2026-05-04 17:01 51.86085 4.17417 1962 ft 160 kts 83°
2026-05-04 17:01 51.86465 4.20690 1981 ft 146 kts 74°
2026-05-04 17:02 51.87481 4.23542 1988 ft 148 kts 57°
2026-05-04 17:02 51.88605 4.26321 1987 ft 148 kts 58°
2026-05-04 17:03 51.89161 4.27706 1987 ft 147 kts 58°
2026-05-04 17:03 51.89721 4.29101 1987 ft 148 kts 58°
2026-05-04 17:03 51.90837 4.31868 1995 ft 147 kts 57°
2026-05-04 17:04 51.91944 4.34672 1864 ft 148 kts 58°
2026-05-04 17:04 51.93051 4.37452 1229 ft 146 kts 57°
2026-05-04 17:05 51.94161 4.40273 408 ft 145 kts 53°
2026-05-04 17:05 51.95182 4.42795 87 ft 129 kts 52°
2026-05-04 17:06 51.95934 4.44625 -7 ft 39 kts 58°
2026-05-04 17:06 51.96072 4.44978 -2 ft 35 kts 57°
2026-05-04 17:07 51.96105 4.45386 0 ft 13 kts 143°
2026-05-04 17:07 51.96086 4.45401 1 ft 0 kts 165°
2026-05-04 17:08 51.96081 4.45403 1 ft 3 kts 166°
2026-05-04 17:08 51.96050 4.45391 1 ft 7 kts 211°
2026-05-04 17:09 51.96010 4.45318 0 ft 11 kts 237°
2026-05-04 17:09 51.95961 4.45197 0 ft 14 kts 237°
2026-05-04 17:09 51.95900 4.45042 -3 ft 19 kts 237°
2026-05-04 17:10 51.95775 4.44731 -6 ft 12 kts 238°
2026-05-04 17:10 51.95616 4.44334 -1 ft 16 kts 237°
2026-05-04 17:11 51.95558 4.44187 -1 ft 16 kts 237°
2026-05-04 17:11 51.95495 4.44031 -3 ft 17 kts 237°
2026-05-04 17:11 51.95355 4.43679 -6 ft 19 kts 239°
2026-05-04 17:12 51.95323 4.43598 -6 ft 0 kts 236°
2026-05-04 17:12 51.95302 4.43547 -7 ft 6 kts 236°
2026-05-04 17:13 51.95237 4.43523 -5 ft 3 kts 152°
2026-05-04 17:14 51.95115 4.43617 -3 ft 7 kts 209°
2026-05-04 17:14 51.95087 4.43561 -3 ft 6 kts 236°
2026-05-04 17:14 51.95063 4.43500 -3 ft 2 kts 237°
2026-05-04 17:15 51.95058 4.43488 -3 ft 1 kts 237°
2026-05-04 17:15 51.95057 4.43463 -3 ft 0 kts 292°
2026-05-04 17:16 51.95068 4.43454 -3 ft 2 kts 328°
2026-05-04 17:16 51.95092 4.43429 -3 ft 0 kts 326°